Flag Weather past 2 weeks in Astana, Kazakhstan

Now
3 °F

Light snow. Mostly cloudy.


Feels Like: -18 °F
Forecast: 0 / 11 °F
Wind: 20 mph from Southwest

Location: Astana

Current Time: Nov 26, 2014 at 9:10:37 AM

Latest Report: Nov 26, 2014 at 8:30 AM


Visibility: 4 mi

Pressure: 30.18 "Hg

Humidity: 85%

Dew point: 0 °F

Location of AstanaLocation

Historic Weather in Astana — Graph

°F

Astana temperature yesterday

Maximum temperature yesterday: 3 °F (at 11:30 PM)
Minimum temperature yesterday: -20 °F (at 12:00 AM)
Average temperature yesterday: -7 °F

Past Weeks' High & Low Weather Summary

 TemperatureHumidityPressure
High34 °F (Nov 13, 12:00 PM)100% (Nov 11, 2:00 PM)30.51 "Hg (Nov 11, 2:00 PM)
Low-22 °F (Nov 24, 11:00 PM)59% (Nov 15, 4:00 PM)29.77 "Hg (Nov 23, 2:00 PM)
Average16 °F86%30.23 "Hg
* Reported Nov 11 7:00 AM — Nov 26 7:30 AM, Astana, Weather by CustomWeather, © 2014

Note: Actual official high and low records may vary slightly from our data, if they occured in-between our weather recording intervals... More about our weather records

Advertising

Astana weather history for previous 24 hours

 ConditionsComfort  
Time TempWeatherWind HumidityBarometerVisibility
7:30 AM
Nov 26
5 °FMostly cloudy.17 mph85%30.18 "HgN/A
7:00 AM5 °FMostly cloudy.20 mph85%30.18 "HgN/A
6:30 AM7 °FMostly cloudy.17 mph78%30.21 "HgN/A
6:00 AM7 °FMostly cloudy.20 mph78%30.21 "HgN/A
5:30 AM7 °FOvercast.22 mph78%30.18 "HgN/A
5:00 AM7 °FOvercast.20 mph78%30.21 "HgN/A
4:30 AM7 °FOvercast.22 mph78%30.21 "HgN/A
4:00 AM7 °FOvercast.22 mph78%30.21 "HgN/A
3:30 AM7 °FOvercast.22 mph78%30.24 "HgN/A
2:30 AM7 °FOvercast.22 mph78%30.24 "HgN/A
2:00 AM7 °FOvercast.17 mph78%30.27 "HgN/A
1:30 AM5 °FOvercast.20 mph78%30.27 "HgN/A
1:00 AM5 °FLow clouds.17 mph78%30.27 "HgN/A
12:30 AM3 °FMostly cloudy.20 mph78%30.30 "HgN/A
12:00 AM3 °FOvercast.20 mph78%30.30 "HgN/A
11:30 PM
Nov 25
3 °FOvercast.20 mph78%30.30 "Hg6 mi
11:00 PM1 °FOvercast.22 mph78%30.30 "HgN/A
10:30 PM1 °FOvercast.20 mph78%30.30 "HgN/A
10:00 PM1 °FOvercast.17 mph78%30.30 "HgN/A
9:30 PM1 °FOvercast.17 mph78%30.30 "HgN/A
9:00 PM1 °FOvercast.20 mph78%30.30 "HgN/A
8:30 PM1 °FOvercast.22 mph71%30.33 "HgN/A
8:00 PM1 °FOvercast.20 mph71%30.33 "HgN/A
7:30 PM1 °FPassing clouds.22 mph71%30.33 "HgN/A
7:00 PM1 °FPassing clouds.20 mph71%30.33 "HgN/A
6:30 PM1 °FPassing clouds.17 mph71%30.33 "HgN/A
6:00 PM1 °FPassing clouds.26 mph71%30.30 "Hg6 mi
5:30 PM0 °FPassing clouds.26 mph78%30.30 "Hg4 mi
5:00 PM0 °FPartly sunny.22 mph71%30.33 "Hg4 mi
4:30 PM0 °FPartly sunny.20 mph71%30.33 "HgN/A
4:00 PM0 °FPartly sunny.22 mph71%30.33 "HgN/A
3:30 PM0 °FPartly sunny.20 mph71%30.33 "HgN/A
3:00 PM0 °FPartly sunny.20 mph71%30.36 "HgN/A
2:30 PM0 °FPartly sunny.20 mph71%30.36 "HgN/A
2:00 PM-2 °FPartly sunny.20 mph77%30.36 "HgN/A
1:30 PM-2 °FPartly sunny.20 mph71%30.36 "HgN/A
1:00 PM-4 °FPartly sunny.20 mph77%30.36 "HgN/A
12:30 PM-6 °FPartly sunny.22 mph77%30.36 "HgN/A
12:00 PM-8 °FPartly sunny.20 mph77%30.39 "HgN/A
11:30 AM-8 °FPartly sunny.22 mph77%30.36 "HgN/A
11:00 AM-9 °FPartly sunny.20 mph77%30.39 "Hg6 mi
10:30 AM-9 °FPartly sunny.20 mph77%30.39 "Hg4 mi
9:30 AM-13 °FLow level haze.17 mph76%30.42 "HgN/A
Weather by CustomWeather, © 2014

See weather overviewHow to use our weather pages